Theta_e
361 361 356 352 354 356 357 357 356 356 356 356 356 357 356 356 356 356 355 355 355 355 354 352 351 350 348 349 351 353 354 354 352 351 351 350 350 349 349 350 351 351 350 351 351 349 348 349 352 352 352 352 352 352 351 352 352 351 351 350 350 351 351 350 349 348 349 350 350 350 349 348 349 349 349 348 348 348 348 347 347 346 347 347 346
361 357 352 353 356 356 355 355 354 355 355 354 355 356 357 356 355 354 354 354 354 353 352 351 351 350 349 349 350 352 354 353 352 351 351 350 349 349 349 349 351 352 352 351 352 352 349 349 351 353 353 352 352 352 351 352 352 351 351 350 350 350 349 349 349 348 348 349 350 349 349 349 349 348 348 349 348 347 346 346 346 346 347 346 345
357 353 352 356 356 355 354 353 353 353 354 354 354 356 357 355 354 354 353 353 352 351 351 351 352 351 351 350 350 351 354 353 352 353 352 350 349 349 349 350 351 352 353 352 352 353 352 351 352 352 352 353 352 352 352 352 352 351 351 350 350 350 348 348 349 348 347 349 350 350 349 349 349 348 348 349 348 346 344 345 346 346 346 346 344
352 352 354 356 355 354 353 352 352 351 352 354 354 355 356 355 354 353 352 352 351 350 350 350 351 351 351 350 351 352 353 353 353 354 354 351 349 349 350 351 351 352 353 353 353 353 353 353 353 351 352 353 352 350 351 351 350 350 351 350 350 350 348 348 349 348 348 349 350 350 350 349 349 348 348 349 348 345 344 346 346 346 346 346 345
352 354 356 355 354 353 351 350 349 349 350 352 352 352 354 354 353 352 352 352 351 350 349 349 350 351 350 350 351 352 353 352 352 354 354 352 350 349 350 351 352 352 353 354 353 354 353 353 353 352 352 352 352 351 351 351 350 350 351 350 350 350 349 349 349 348 348 349 349 349 349 349 349 348 348 348 347 345 345 347 347 346 346 346 344
354 355 354 353 353 350 348 349 349 348 349 349 350 350 351 351 351 352 352 352 351 350 349 350 350 351 350 350 351 352 352 351 350 351 351 350 350 351 351 351 352 352 353 354 353 354 353 353 353 352 351 351 351 351 351 350 350 350 350 350 349 350 349 349 348 348 348 349 349 349 349 349 349 348 348 347 347 346 347 347 347 347 346 346 345
354 354 353 352 350 348 348 349 349 349 349 350 350 350 350 350 350 351 352 351 351 350 350 350 351 351 350 350 350 350 349 349 348 349 350 350 350 350 351 351 352 353 353 353 353 354 354 353 353 353 352 351 351 352 351 351 351 350 350 351 350 350 349 350 349 348 349 349 349 349 349 349 349 348 348 347 348 347 347 347 347 348 346 346 346
354 354 353 351 349 348 348 348 348 349 349 349 350 351 352 350 350 349 351 351 351 350 350 351 351 350 349 348 348 348 349 349 349 349 350 351 350 350 351 351 352 352 352 352 353 353 354 353 353 353 352 352 352 352 352 351 351 351 351 351 351 350 350 350 350 349 349 349 349 350 349 349 348 349 348 348 348 347 347 346 347 348 346 346 346
354 353 352 350 347 347 347 347 347 347 348 349 349 349 349 350 351 350 351 352 352 352 351 351 352 351 350 349 350 349 349 349 349 350 350 350 350 350 350 351 351 351 352 352 353 353 353 353 352 352 352 352 352 352 351 352 351 351 350 350 350 350 351 350 349 349 349 348 348 350 351 349 348 348 349 349 348 348 347 347 346 347 347 346 346
353 352 352 350 347 346 346 345 344 345 347 348 345 340 339 343 348 350 350 350 352 352 353 352 351 351 351 351 351 351 349 349 349 349 349 349 350 351 351 351 351 350 350 351 353 353 353 352 352 351 351 352 352 352 351 352 352 351 350 351 350 350 351 350 350 350 349 349 349 350 350 350 348 349 350 349 348 348 347 347 346 347 347 346 347
353 352 351 349 347 345 343 342 342 344 343 340 336 332 334 336 339 341 342 343 348 351 352 352 351 351 351 350 351 350 348 350 351 349 349 350 350 350 350 350 351 350 349 349 351 352 352 351 351 350 350 351 352 352 351 351 351 351 351 351 350 350 350 350 350 350 349 350 349 350 350 350 350 349 350 350 348 347 347 346 346 346 346 346 347
352 351 350 348 345 343 341 341 342 342 338 333 329 327 330 333 333 333 331 333 337 342 349 351 351 352 351 350 350 350 349 350 351 350 349 350 350 349 349 349 350 349 348 349 350 351 350 350 350 350 349 349 350 351 351 351 350 350 351 351 350 350 350 350 350 349 349 349 347 349 350 350 351 350 349 350 348 347 346 346 347 346 345 345 347
351 351 349 345 343 341 340 341 341 338 334 331 327 325 328 331 332 330 328 329 329 334 346 351 352 352 351 351 350 349 349 350 351 349 348 349 349 348 347 348 349 349 349 349 350 351 350 349 349 349 350 349 350 350 351 351 351 350 350 350 350 350 349 349 350 349 350 348 346 348 349 349 350 350 349 349 348 346 346 346 347 346 345 344 346
350 348 346 342 341 341 341 342 342 338 332 329 327 325 326 329 330 328 327 327 326 328 335 345 349 349 350 352 352 350 348 348 349 349 348 348 348 348 347 347 348 348 348 350 350 350 349 349 348 349 350 348 349 350 351 351 350 350 350 350 350 350 350 350 349 349 349 348 346 348 349 348 348 349 350 349 348 346 346 346 346 346 345 343 345
349 346 343 341 342 342 342 341 339 336 330 327 326 324 325 328 328 328 326 325 326 325 327 332 336 342 347 353 355 354 353 349 347 346 348 349 348 348 348 347 346 345 346 349 350 350 350 349 348 349 349 349 349 350 350 350 350 350 351 350 350 350 350 349 348 349 350 348 346 347 348 348 347 348 350 349 348 347 347 347 346 346 346 343 344
348 346 342 342 344 340 337 335 334 333 329 325 327 326 325 327 327 327 326 326 326 324 325 326 326 331 338 347 351 352 352 348 343 346 348 349 350 349 349 348 345 344 345 347 349 351 351 349 349 348 348 348 349 349 350 350 350 350 350 349 350 350 349 348 348 349 350 348 347 346 347 347 347 347 348 349 348 348 348 347 346 346 346 343 342
348 344 342 344 344 338 332 332 332 330 328 326 328 329 327 327 326 327 328 328 327 324 324 325 324 325 327 334 340 344 350 346 341 344 345 348 351 349 348 348 345 344 346 347 348 350 350 350 349 347 347 348 348 349 350 350 350 350 349 349 349 349 349 348 349 349 349 348 347 346 346 346 346 347 348 349 348 348 348 347 346 346 347 344 341
346 343 345 345 341 337 333 333 332 328 327 327 329 330 330 327 325 327 329 329 327 325 324 325 325 323 323 326 326 330 339 338 336 342 344 347 351 350 349 348 346 345 346 348 348 348 350 350 349 347 346 347 348 349 349 349 350 350 349 349 349 349 348 348 349 349 348 348 349 348 347 346 347 347 348 349 348 348 347 346 346 346 347 345 342
345 345 347 342 337 338 335 333 332 330 328 329 330 330 330 329 326 327 330 330 328 326 325 325 325 324 324 324 323 324 327 327 332 339 342 344 345 346 347 345 346 346 345 347 347 346 349 349 347 346 346 347 348 348 349 349 350 349 349 348 349 349 348 349 349 349 349 349 350 348 347 347 347 346 346 348 349 348 346 345 346 346 346 346 344
345 347 347 341 337 338 336 333 333 333 332 331 332 332 331 331 330 328 329 330 330 327 325 324 325 326 325 323 322 323 324 325 327 331 338 342 338 337 333 330 339 346 345 346 345 345 347 347 346 345 345 347 348 348 348 349 349 349 349 348 348 348 348 349 349 349 349 349 350 348 346 345 346 346 345 347 349 348 346 345 346 346 346 345 345
346 347 344 341 339 337 335 335 336 336 334 334 334 333 331 332 332 330 328 329 330 327 324 324 326 326 326 325 323 323 324 325 323 325 331 334 333 334 329 324 333 342 346 347 345 345 347 347 346 344 345 346 348 349 349 349 348 348 348 347 348 348 348 348 348 348 349 348 349 349 347 345 345 346 346 347 348 347 346 346 346 346 345 345 345
346 347 343 341 340 337 335 336 337 336 334 334 335 333 332 331 330 331 328 327 329 327 324 325 326 326 326 326 324 323 323 324 324 322 323 325 327 331 328 326 329 334 343 348 346 347 348 346 344 343 344 345 346 348 348 348 348 347 347 347 347 347 348 348 347 348 348 348 348 348 348 347 346 347 347 348 348 347 346 346 346 346 345 346 345
347 347 344 342 340 336 335 336 337 335 332 331 331 331 333 331 330 330 326 323 328 328 324 324 325 326 327 326 324 323 322 323 323 320 322 324 326 329 326 324 325 326 335 345 347 349 348 343 343 343 342 343 345 347 347 348 348 347 347 347 347 347 347 347 347 347 347 347 346 346 347 348 347 348 348 348 347 347 346 346 347 346 346 347 346
349 349 345 342 340 336 335 336 336 333 331 330 329 329 332 332 329 327 323 322 328 329 325 325 325 325 327 327 325 324 324 324 323 321 321 321 324 329 327 324 325 324 327 332 337 344 348 344 342 343 341 340 343 346 346 346 347 346 346 347 347 346 346 347 346 347 347 347 347 347 347 348 347 348 347 347 347 346 346 346 347 347 347 347 347
349 349 344 342 341 337 335 336 336 333 332 332 329 327 329 330 327 323 323 325 328 327 326 325 325 324 326 327 327 325 324 325 326 325 324 323 324 328 327 324 326 326 325 327 328 335 343 345 343 342 341 340 342 344 344 345 346 345 345 346 347 347 347 347 347 347 347 347 347 347 347 348 348 347 347 346 346 345 345 345 347 348 348 347 348
349 348 345 343 341 339 337 336 335 333 333 333 329 326 326 327 324 321 324 326 326 327 327 327 327 325 324 326 328 326 326 328 327 325 326 326 325 326 327 327 326 325 326 326 325 328 334 342 344 342 341 342 342 342 342 342 343 344 345 345 346 347 346 347 348 347 347 347 347 347 347 347 347 347 347 346 345 344 344 344 346 347 348 348 348
348 346 346 344 341 340 339 338 336 334 335 333 328 325 325 325 323 322 324 325 324 326 328 327 328 326 324 326 329 328 328 329 327 326 326 325 326 325 327 329 329 334 338 332 326 325 327 334 337 332 333 338 339 336 338 342 343 344 345 344 344 345 345 345 345 343 345 347 347 347 346 346 347 347 347 346 345 344 344 345 346 347 348 348 347
345 343 344 343 341 340 338 337 335 335 334 330 325 326 326 326 326 326 326 326 326 327 328 328 327 326 326 327 329 328 328 328 326 326 325 324 326 325 326 328 327 335 346 342 333 329 326 327 327 324 325 332 334 333 337 342 343 344 345 344 343 343 343 344 343 340 342 344 345 347 347 346 347 347 347 347 346 345 346 346 346 346 347 347 346
343 341 341 342 340 337 336 335 334 333 332 327 325 327 326 326 327 327 326 328 328 328 329 329 327 326 327 328 329 328 328 328 326 325 324 324 325 325 326 327 325 329 338 339 333 330 326 324 324 324 324 326 328 328 330 332 332 334 339 343 344 344 343 343 343 343 343 343 344 346 347 347 347 347 347 347 347 346 347 347 346 345 345 346 346
344 342 341 341 338 335 335 333 332 331 331 327 325 327 326 325 325 324 325 326 326 328 328 329 328 326 327 328 329 329 328 328 326 324 324 324 325 325 326 326 326 328 332 334 331 327 325 325 325 325 325 324 324 324 324 324 324 324 329 335 340 341 340 341 341 342 343 343 344 345 347 346 346 347 347 347 347 346 347 347 346 345 344 346 346
344 342 342 339 336 335 334 332 330 330 329 326 323 326 327 325 324 324 325 324 323 325 326 327 327 326 327 327 327 327 327 327 326 325 325 325 325 326 326 325 326 326 326 331 333 327 324 327 326 326 327 326 324 324 323 323 323 323 324 327 330 331 332 333 333 333 335 336 336 339 342 344 345 346 346 347 347 347 346 346 346 346 346 346 347
342 340 340 337 335 335 333 331 331 330 329 326 324 326 326 324 323 323 324 324 324 325 325 324 324 325 326 326 326 325 325 325 326 326 326 326 326 326 325 325 326 326 325 327 331 328 326 327 327 326 327 327 326 325 325 324 324 323 323 324 325 325 325 325 325 325 327 328 328 328 332 336 340 343 345 346 347 347 347 347 347 347 346 346 346
340 338 337 336 335 334 332 332 332 330 328 327 326 326 325 323 321 322 324 326 326 326 325 324 325 326 327 326 326 326 325 325 326 327 327 327 327 327 327 326 326 327 326 326 328 328 326 327 327 326 326 326 326 326 326 325 325 324 324 324 324 324 324 324 324 324 325 325 325 324 324 326 330 336 340 343 345 347 347 346 347 347 347 346 346
339 337 336 336 334 334 333 332 331 326 324 326 327 325 325 324 322 324 326 327 327 325 325 326 327 327 327 326 326 326 326 326 327 327 327 327 327 327 327 327 327 327 327 327 327 327 326 327 327 326 326 326 326 326 326 327 326 325 325 325 325 325 325 324 323 324 324 324 323 323 323 322 324 327 333 338 343 345 346 345 346 347 346 346 346
339 337 336 335 334 334 334 332 329 324 319 321 326 326 324 324 325 327 327 326 326 325 325 327 327 327 327 327 327 327 327 328 327 326 326 326 327 327 327 327 327 327 327 327 327 327 327 327 327 326 326 326 326 326 326 327 327 326 326 326 325 325 326 325 324 324 324 323 323 322 322 322 321 323 328 334 339 343 346 346 346 345 345 346 346
339 338 336 335 335 334 332 330 327 320 313 313 319 324 325 325 326 327 327 326 326 325 325 327 328 328 328 328 328 328 328 328 327 327 327 326 326 327 327 327 327 326 326 327 327 327 327 326 326 326 327 327 327 327 326 327 328 327 326 326 326 326 326 326 325 325 324 324 324 323 323 322 321 322 326 331 337 341 344 346 345 344 344 344 344
339 338 336 335 334 332 330 328 322 314 309 308 313 320 325 326 326 327 327 326 326 325 326 327 328 328 328 328 328 328 328 328 327 327 327 326 326 326 327 327 327 326 326 326 327 327 326 327 327 326 326 327 327 326 326 327 328 327 327 327 327 327 327 327 327 326 326 326 326 325 325 324 323 325 327 331 337 340 342 344 344 344 344 342 341
337 336 335 333 332 330 328 324 315 309 307 308 313 321 326 327 328 328 327 326 326 326 327 327 328 328 329 329 328 328 328 327 327 327 327 326 326 326 326 326 327 327 326 326 327 327 326 326 326 326 326 326 326 326 326 328 328 327 327 327 327 327 327 327 328 328 327 328 327 327 328 329 329 330 329 332 337 339 340 341 340 342 344 343 340
335 334 333 331 330 330 326 321 315 310 307 308 315 323 327 328 328 328 326 325 326 327 328 328 329 329 329 329 329 328 328 327 326 326 326 326 326 326 326 327 327 327 326 326 326 327 326 326 326 326 326 326 326 326 326 327 327 327 327 327 327 327 326 327 327 328 328 328 329 329 330 332 334 335 335 333 334 337 339 341 340 341 343 342 340
334 333 333 331 330 328 324 320 319 317 311 310 316 323 327 327 327 327 326 325 327 328 328 327 327 329 330 330 330 329 328 327 327 326 325 325 326 326 327 327 327 327 327 326 326 326 326 326 325 325 326 326 326 326 326 326 326 327 327 327 327 327 326 326 327 328 327 327 329 329 330 331 332 335 337 336 335 335 337 341 341 341 342 341 339
334 333 332 331 329 327 323 321 323 323 316 314 317 323 327 327 325 326 326 326 327 328 327 327 327 327 328 329 329 329 328 326 325 325 324 325 326 327 328 328 328 327 327 326 326 326 326 326 325 325 325 326 326 326 326 326 325 326 326 326 326 326 326 326 327 328 328 327 327 329 329 330 330 331 333 334 335 334 335 338 340 339 339 340 340
333 332 331 330 327 325 324 324 325 325 320 317 319 323 327 326 324 326 326 326 327 327 326 327 327 327 326 326 327 327 326 324 322 320 321 324 327 328 328 329 328 327 327 326 326 326 326 326 325 325 325 326 325 325 325 325 325 325 326 325 325 326 326 326 326 327 328 327 326 328 329 329 329 329 330 331 333 333 333 335 337 336 337 339 339
333 332 330 329 327 326 327 327 326 325 321 317 318 322 326 325 324 327 326 325 326 326 325 326 326 326 326 325 326 326 324 321 319 318 319 322 326 327 328 329 328 327 327 326 326 326 326 326 325 325 325 325 325 325 325 326 325 325 325 325 325 326 326 327 327 327 327 326 326 327 328 328 329 330 330 331 333 334 334 333 333 333 333 334 337
332 331 330 329 328 327 328 328 327 326 324 320 317 318 322 324 325 327 327 325 326 326 325 325 326 326 325 325 326 325 322 319 319 319 320 322 324 326 326 327 327 327 327 326 326 326 325 325 325 325 325 325 325 325 325 326 326 325 325 323 324 325 325 326 326 326 326 325 325 327 328 328 330 331 331 332 333 334 334 333 333 332 332 332 335
332 330 330 329 328 329 329 329 327 327 328 324 318 314 315 320 325 327 326 326 326 326 326 326 326 325 325 325 325 324 320 319 319 321 322 323 322 322 324 325 324 325 326 326 326 326 325 325 325 325 325 325 325 325 325 326 326 325 324 323 323 324 325 325 326 325 325 325 325 327 328 328 331 332 332 332 333 333 333 333 333 332 332 332 333
332 329 329 328 329 330 330 329 327 328 328 326 323 319 312 314 324 327 325 326 327 327 327 326 326 326 325 325 324 322 320 319 320 321 322 323 321 320 322 323 323 323 324 325 325 325 325 325 325 325 326 326 326 325 325 325 325 324 324 323 323 324 325 325 325 325 326 326 327 328 328 328 329 330 331 332 333 333 333 332 332 332 333 334 335
332 330 328 327 329 329 329 329 328 329 329 326 327 327 315 312 322 327 324 325 327 327 327 327 326 326 325 324 323 321 320 320 321 321 321 321 320 320 322 322 323 323 324 324 325 325 325 325 325 326 326 326 326 325 325 325 324 323 324 324 324 324 325 325 325 326 327 327 327 328 329 328 328 328 329 330 331 332 332 332 332 331 333 335 337
332 331 329 326 328 328 328 329 329 329 330 327 329 328 317 311 320 326 324 324 325 327 327 327 326 326 325 324 322 321 321 321 321 321 321 320 321 322 322 323 323 324 324 325 325 325 325 325 326 326 326 326 325 325 325 325 325 325 325 325 325 325 325 325 325 326 327 327 327 329 329 328 327 328 329 329 329 330 330 331 331 331 332 333 334
334 330 328 327 328 328 328 329 328 329 330 329 329 327 317 310 315 322 323 323 323 326 327 327 326 326 325 324 322 321 322 321 321 322 321 320 321 322 322 323 324 324 325 325 325 325 325 325 326 326 326 326 325 325 326 326 326 326 326 325 325 325 325 324 325 326 326 326 327 328 328 327 328 329 329 329 329 328 328 329 330 331 332 332 332
335 328 327 327 327 327 327 326 327 328 330 330 328 324 317 312 313 319 322 321 322 325 327 327 326 326 326 324 323 322 322 322 322 322 321 321 322 322 322 323 323 324 325 325 325 324 325 325 325 326 326 326 325 325 326 327 327 326 326 325 325 325 325 324 325 326 326 326 325 326 327 327 328 329 328 327 327 327 327 328 330 332 332 332 333
334 329 328 328 326 325 325 325 327 329 330 330 327 322 319 316 314 315 317 318 322 326 328 327 326 325 325 324 323 322 323 323 322 322 321 321 322 322 322 323 323 324 324 325 325 325 324 325 325 325 325 325 325 325 326 326 326 326 325 325 325 325 325 325 325 325 325 325 324 325 327 327 327 329 328 327 326 326 326 327 329 331 332 332 333
Wind_Speed
5 8 12 12 11 10 11 11 12 13 13 13 13 13 13 13 12 12 12 13 14 14 14 13 13 14 12 12 12 12 11 11 10 10 10 10 9 9 9 11 12 12 11 11 11 11 12 15 18 20 21 23 24 25 27 27 26 26 26 27 28 28 27 27 27 27 27 27 27 27 27 27 28 27 26 26 26 25 25 24 23 24 23 23 24
6 9 10 9 9 10 11 12 12 12 12 13 12 12 12 12 12 11 11 11 11 11 12 12 12 10 8 9 10 10 10 10 9 9 8 8 7 8 8 9 11 12 12 12 12 13 14 15 16 19 20 21 23 25 27 27 26 27 27 28 29 29 30 30 29 29 28 28 28 28 28 28 28 27 26 27 26 26 26 25 24 25 24 23 23
7 7 6 7 8 10 12 12 12 12 12 12 11 10 10 11 11 11 10 9 9 9 10 10 11 9 7 8 8 9 9 8 8 7 6 5 6 7 7 8 10 11 13 13 13 14 15 15 15 18 19 21 23 25 26 26 28 29 28 29 30 30 32 32 32 32 31 30 29 28 28 28 28 28 28 27 26 27 27 26 25 25 25 24 24
5 4 6 7 9 11 13 13 13 13 13 12 10 8 8 10 11 11 10 9 9 8 7 7 8 5 3 4 4 6 6 5 5 5 4 4 5 6 7 8 9 10 12 12 13 14 15 15 15 16 19 21 23 25 26 27 28 30 29 29 30 30 32 33 33 32 32 31 30 29 29 29 29 29 29 28 28 28 28 26 26 26 25 25 25
4 6 7 8 9 11 12 13 14 15 15 13 11 10 9 10 10 10 10 9 9 8 6 6 6 4 1 1 2 3 4 3 2 2 3 4 5 6 7 8 8 8 10 11 12 13 14 15 16 16 18 20 22 25 26 27 30 32 30 29 30 32 32 32 33 33 32 32 32 31 30 30 30 30 30 30 29 29 28 27 27 26 26 25 25
7 7 8 8 9 11 13 14 15 17 17 16 15 14 13 12 11 10 10 10 10 9 7 6 4 3 4 4 4 3 2 1 2 3 4 4 5 6 6 7 7 7 8 9 11 11 13 15 16 17 19 20 22 24 25 27 31 32 31 30 31 33 33 32 33 34 33 32 32 32 31 31 31 31 31 30 30 29 28 27 27 27 27 25 25
8 8 8 8 9 11 12 13 15 16 17 18 17 17 16 14 13 12 11 10 10 10 9 7 6 5 4 5 4 3 1 1 0 3 3 3 5 7 6 5 6 6 6 8 10 10 11 13 14 16 19 20 21 23 25 27 30 32 32 32 32 34 35 34 33 32 32 32 33 33 33 32 32 32 32 31 30 29 28 27 27 27 27 26 25
8 8 8 8 10 10 11 13 13 15 17 18 18 18 17 16 14 13 12 11 10 10 9 8 7 6 5 5 5 4 4 3 2 1 2 2 4 5 5 5 6 6 6 7 8 9 10 11 11 14 18 20 20 22 23 26 29 31 32 33 33 35 36 35 34 33 33 33 33 33 34 33 33 33 32 31 31 29 28 28 27 26 27 27 26
8 8 8 9 9 10 11 12 13 14 15 17 18 18 18 16 14 13 12 12 11 10 9 8 7 7 6 6 5 5 5 4 3 1 1 2 3 3 4 5 5 4 5 7 7 8 9 10 10 12 15 18 19 21 22 24 27 30 33 34 34 35 34 33 35 35 35 35 35 34 33 33 34 33 32 31 31 30 29 28 28 27 27 27 26
8 7 8 8 8 9 11 13 14 14 14 15 16 17 17 16 14 13 12 12 11 10 9 8 6 6 6 5 5 4 4 3 3 2 1 2 3 2 4 5 5 4 5 6 7 8 9 10 10 11 13 16 17 19 21 22 24 28 32 34 34 34 33 33 33 34 34 34 35 33 31 33 34 33 32 31 31 31 30 29 29 28 27 27 27
8 7 7 8 7 9 11 14 15 13 12 14 16 17 17 16 15 14 13 12 10 10 10 8 6 5 5 5 4 4 3 2 2 2 2 3 3 2 4 5 6 5 5 6 6 7 8 9 10 11 12 14 16 17 19 21 23 26 29 31 33 33 31 31 30 30 32 32 31 30 29 31 32 33 32 31 31 31 31 30 29 28 27 27 28
7 7 8 8 8 9 12 15 15 12 13 16 18 18 15 15 15 14 14 13 13 12 8 7 7 4 3 4 3 3 1 0 0 0 2 3 4 3 3 5 7 6 5 6 7 7 8 9 9 10 11 12 14 15 17 19 21 23 24 27 31 32 30 30 29 30 31 30 30 30 30 31 30 32 32 31 31 31 31 30 28 27 27 27 28
6 7 8 9 10 11 13 16 15 11 13 16 18 18 14 13 13 13 15 15 17 15 8 6 7 4 2 2 1 1 1 2 2 2 2 2 4 4 3 3 6 6 6 7 7 7 9 9 9 10 10 11 13 14 15 16 18 20 22 23 27 30 30 29 30 31 29 29 31 30 29 31 30 30 31 31 30 30 31 30 28 28 28 27 27
7 8 9 10 11 12 12 15 14 10 11 15 18 18 15 15 14 13 15 15 16 18 13 6 5 3 1 1 2 2 2 3 4 4 3 3 4 6 4 3 4 6 7 8 8 9 10 10 9 10 11 11 12 12 13 15 16 17 20 22 25 28 28 29 30 30 30 30 32 30 26 28 30 29 29 30 29 30 30 30 29 29 28 28 28
8 8 9 10 10 12 12 13 12 10 10 15 19 19 16 18 19 17 17 16 16 19 19 14 9 4 1 2 2 2 3 3 4 5 5 4 4 6 6 5 5 7 8 7 8 10 11 10 9 10 11 11 11 11 12 13 15 15 17 20 24 26 26 28 30 29 31 32 33 31 29 29 30 28 28 29 28 29 29 29 29 29 29 28 28
7 7 8 10 10 12 12 13 13 11 11 16 20 20 17 17 20 21 20 18 17 19 20 20 20 13 3 1 1 2 2 4 4 4 6 5 5 5 6 5 5 7 7 7 8 10 11 11 9 10 11 10 9 8 9 11 12 13 14 17 22 26 26 28 30 31 32 33 33 33 32 32 31 30 30 29 28 29 29 29 30 30 29 29 28
7 8 10 10 10 11 12 14 14 11 12 17 19 20 20 17 17 21 22 20 18 19 19 19 22 20 11 2 1 2 2 3 3 2 4 5 5 6 6 6 7 7 7 7 8 10 12 11 10 10 10 10 8 6 7 8 10 12 14 17 21 25 27 28 30 31 31 31 32 33 34 33 32 31 30 30 29 29 29 30 31 31 30 29 29
8 10 11 11 10 10 10 12 14 13 12 15 17 18 20 18 15 18 21 20 19 20 21 20 20 23 21 11 4 2 4 3 1 1 3 3 5 7 8 8 8 7 8 8 7 10 11 11 11 10 9 9 7 5 6 6 9 13 15 18 20 23 25 25 27 29 29 29 30 32 33 32 32 31 30 30 30 30 31 31 32 31 30 30 29
9 10 10 10 9 9 8 9 13 15 13 14 16 16 17 18 15 15 19 20 21 19 19 21 19 22 24 20 16 10 4 4 1 1 3 3 2 5 7 10 11 11 10 9 7 9 10 10 10 9 8 7 5 4 4 4 8 10 13 17 19 21 23 23 24 26 28 29 29 31 33 32 31 32 32 30 29 30 31 31 32 32 32 31 30
10 9 8 8 8 9 8 10 14 15 14 14 15 14 14 17 17 16 17 19 21 18 17 21 19 19 24 23 22 19 12 10 7 5 2 1 5 6 9 12 8 12 13 9 6 8 10 9 8 9 9 7 5 3 3 4 8 10 11 14 15 17 19 20 21 24 27 28 28 30 32 32 32 32 33 32 29 29 30 30 31 33 34 33 32
8 8 7 7 8 9 10 12 14 15 14 12 13 14 13 15 17 17 16 17 19 19 18 21 19 19 23 22 20 19 18 18 17 12 7 4 3 4 7 15 12 6 10 9 5 6 9 9 7 8 9 7 6 4 4 5 8 10 11 12 13 15 18 20 22 24 26 27 29 29 29 30 32 31 32 32 30 29 28 29 31 32 33 34 34
7 6 5 5 6 8 10 12 12 13 13 12 12 13 12 13 16 17 17 15 16 18 19 20 20 20 22 22 20 16 13 14 14 13 9 5 2 3 5 8 10 9 4 6 5 5 7 8 6 7 7 6 5 4 4 5 7 9 11 11 12 15 18 20 23 25 26 27 28 27 26 28 30 30 29 29 28 27 27 28 29 30 33 33 33
5 3 3 3 5 7 9 10 10 11 13 14 12 12 11 11 14 17 17 14 13 16 17 19 20 20 22 23 20 13 8 7 9 11 8 4 3 3 5 6 6 9 9 3 6 7 7 7 5 5 5 6 5 3 3 5 6 8 10 11 12 14 17 20 22 24 25 25 25 24 25 27 29 28 28 28 27 26 26 27 27 30 32 32 31
3 2 3 3 5 7 8 8 9 11 13 13 12 12 11 11 14 17 16 13 13 14 16 18 19 19 20 22 20 15 11 9 10 12 9 5 4 3 5 5 4 6 10 8 5 6 8 6 4 4 3 4 4 3 3 3 4 5 8 11 13 14 16 18 20 22 23 23 24 24 25 27 28 28 28 28 28 27 27 27 28 30 32 32 32
4 4 5 2 3 5 8 8 8 10 11 11 11 11 11 13 15 16 14 13 15 14 13 16 17 17 17 18 19 17 15 14 14 15 13 9 7 4 3 3 3 4 8 10 9 4 3 5 3 3 3 4 3 2 3 3 3 3 5 8 12 14 15 18 19 20 21 21 22 23 23 24 25 26 28 29 29 28 28 28 29 31 31 31 30
4 5 6 3 1 4 6 8 9 10 10 11 12 11 11 14 16 15 13 13 15 15 13 14 15 16 15 16 17 17 17 18 19 19 18 15 11 5 3 3 3 4 6 9 10 9 4 1 2 5 7 7 5 5 4 3 3 2 3 4 9 13 15 17 19 19 19 19 19 20 22 23 24 25 26 28 29 29 28 29 30 30 29 28 27
3 4 7 7 2 4 4 6 9 9 10 10 12 12 12 15 15 14 13 12 13 14 13 13 14 15 15 15 16 18 18 19 20 20 20 19 15 8 4 1 3 4 4 6 8 10 10 6 8 12 11 8 8 8 7 5 4 5 3 2 2 6 9 12 13 12 13 17 18 20 23 23 23 24 26 26 27 28 28 29 30 29 27 27 26
9 7 6 7 3 6 6 9 10 10 10 11 12 13 13 14 14 13 13 12 12 14 14 13 14 15 16 16 17 20 19 19 20 22 22 22 20 13 4 1 2 3 3 4 4 7 12 11 12 18 19 17 15 10 4 5 6 7 7 4 2 1 2 6 8 7 9 12 15 18 21 22 22 23 25 25 26 27 28 28 29 28 27 28 27
12 11 8 7 7 11 12 12 11 11 11 12 13 14 13 14 15 14 13 11 11 14 15 15 14 15 17 18 19 20 20 21 22 23 22 23 23 21 15 9 5 0 1 3 3 5 13 15 15 17 19 20 21 19 15 11 11 10 6 5 5 3 2 2 5 7 8 9 11 14 18 21 23 25 25 25 26 27 28 27 28 29 30 29 28
11 10 9 11 13 14 14 13 12 11 12 11 12 12 13 14 15 15 15 13 14 16 16 15 14 14 17 18 19 19 19 20 22 22 22 22 22 22 21 18 14 6 3 3 3 6 12 16 17 17 16 16 16 16 17 16 16 16 14 11 8 5 5 4 2 3 5 7 9 11 14 17 20 23 25 26 27 27 28 27 28 30 30 29 28
8 8 9 13 16 14 13 12 11 11 11 11 10 11 12 12 14 15 15 15 16 16 15 16 14 13 15 17 19 19 18 19 21 22 21 21 20 20 20 20 19 14 8 5 3 5 12 15 16 16 15 14 12 11 11 12 12 13 13 12 11 9 7 6 6 5 4 5 7 8 10 13 16 19 21 24 26 26 27 27 28 29 29 27 28
10 12 13 15 14 12 12 11 10 10 10 10 10 10 12 12 12 14 15 15 16 16 15 15 14 13 14 16 18 18 17 18 19 20 20 19 19 18 18 18 19 17 14 9 4 3 10 13 13 14 13 13 13 11 9 9 9 10 9 9 8 8 6 6 6 6 7 7 7 8 9 11 13 16 18 19 21 23 25 26 27 28 28 28 29
15 15 14 14 13 12 13 11 10 10 10 10 9 10 12 13 12 13 14 15 15 14 15 15 14 13 14 15 17 17 16 17 18 18 19 19 19 19 18 17 18 18 16 13 6 3 8 12 12 12 12 12 13 12 11 9 8 7 6 4 3 4 4 4 5 5 5 6 7 9 10 12 12 14 16 17 15 16 20 23 25 27 29 29 29
15 15 15 16 15 14 13 11 11 11 10 9 9 9 12 14 13 13 14 14 14 13 14 14 14 13 13 14 15 15 15 16 17 18 19 20 20 20 19 17 17 17 16 15 11 7 8 11 12 12 11 11 12 11 11 10 8 5 3 1 1 2 3 4 5 6 6 7 8 10 13 14 14 13 14 15 15 14 15 17 19 23 26 28 28
13 14 16 17 15 13 12 11 11 11 10 7 7 8 10 12 12 12 13 13 12 12 12 12 12 12 13 14 14 13 14 15 17 18 18 19 19 18 17 16 15 14 13 13 12 9 8 10 12 12 12 11 10 10 10 9 8 6 4 2 2 2 3 5 5 7 8 9 10 12 14 17 16 14 12 12 15 15 13 12 12 13 17 21 22
14 15 15 15 14 12 12 12 11 11 9 6 5 7 9 10 9 9 11 11 10 10 12 12 12 12 14 14 13 14 15 17 18 18 18 18 17 15 14 13 12 11 10 9 8 7 6 7 9 11 11 10 9 10 10 8 7 7 5 4 4 5 5 5 6 6 8 9 11 12 13 15 17 16 13 10 12 12 11 10 9 7 9 12 13
15 16 15 14 13 13 13 13 12 12 9 7 7 9 9 8 7 6 6 8 10 10 11 11 11 12 13 12 13 15 17 18 18 18 18 17 17 15 14 12 10 9 8 7 7 7 6 5 6 8 9 9 10 11 11 8 7 7 6 6 5 5 4 5 5 5 7 8 10 12 12 12 14 15 13 9 10 11 11 11 10 9 9 11 12
16 17 16 14 14 14 14 13 14 13 10 9 9 10 9 7 6 6 5 7 9 9 9 9 10 11 12 11 12 15 17 16 16 15 15 16 16 15 15 13 11 10 9 8 8 8 7 5 6 8 9 10 11 12 11 8 7 8 8 7 8 8 6 5 5 4 4 3 4 8 9 8 8 10 10 8 8 11 12 12 11 10 8 9 10
17 16 16 15 14 13 13 15 18 16 12 10 10 10 8 7 8 7 6 7 8 8 8 9 11 11 11 11 12 13 14 13 13 14 14 14 14 14 15 14 12 12 10 9 8 8 8 8 8 9 11 12 12 12 11 8 6 9 12 11 10 11 9 8 7 6 4 3 2 3 5 4 2 2 3 5 7 9 11 12 12 12 11 10 10
16 15 15 14 13 12 13 16 19 19 15 11 10 8 6 7 10 7 7 7 8 8 8 9 10 10 11 12 12 11 11 12 12 14 14 14 14 13 13 12 10 11 10 8 8 8 7 8 9 10 10 11 11 12 13 12 10 11 12 12 11 11 11 10 7 6 7 6 4 3 4 3 2 2 2 1 4 7 9 12 13 13 13 13 12
15 14 13 11 11 12 13 14 16 18 17 13 9 7 5 6 10 7 7 7 7 7 7 8 9 9 9 10 9 9 10 12 14 14 14 13 12 10 10 10 9 9 8 7 7 7 7 8 9 10 9 10 11 12 13 13 12 12 11 11 10 10 12 10 6 5 8 9 6 3 3 4 4 3 2 2 1 4 8 12 13 13 14 14 14
15 13 12 11 11 11 11 12 13 16 17 14 8 5 4 5 9 7 6 7 6 6 6 8 9 8 7 7 8 9 11 14 15 14 13 12 11 8 8 9 8 7 7 8 7 6 6 7 8 8 8 9 10 11 12 13 13 12 10 11 12 11 11 10 6 5 8 10 8 4 3 3 4 4 2 2 3 3 5 8 10 11 12 13 14
15 14 13 12 10 9 9 9 11 14 15 13 8 4 1 4 10 7 5 7 5 5 6 8 8 6 6 7 8 10 13 15 15 14 12 11 11 10 10 8 7 7 7 8 7 6 5 6 7 6 7 8 9 9 10 13 14 13 11 11 11 11 11 8 5 5 8 10 9 5 3 2 1 1 1 2 3 4 4 5 6 7 9 11 13
16 14 12 11 10 9 8 8 10 12 12 12 9 4 1 3 8 7 3 6 5 4 5 7 7 5 5 6 7 10 13 14 13 13 11 9 9 11 11 9 9 10 8 7 7 6 5 6 7 7 7 8 9 9 9 11 12 12 12 12 11 10 10 8 7 8 8 9 8 6 3 2 1 2 2 3 3 3 4 3 3 4 6 9 12
14 13 12 10 10 9 8 7 8 10 10 11 12 9 3 3 6 6 4 5 4 3 4 6 6 5 5 6 7 10 12 12 12 13 11 9 9 10 9 8 10 11 9 7 6 6 6 7 8 10 9 9 10 11 9 9 11 12 13 13 11 10 10 10 10 11 10 8 6 5 4 2 1 2 3 4 4 5 6 5 5 5 5 8 11
13 13 11 10 9 9 7 6 6 7 8 9 13 13 8 3 3 6 7 6 4 3 4 5 5 5 6 7 8 11 11 11 12 13 11 10 10 10 9 8 9 10 9 7 6 6 7 7 9 11 11 10 11 11 9 9 10 10 11 11 10 9 10 11 11 10 8 6 4 3 2 2 1 2 3 3 3 5 6 7 8 7 7 8 11
14 12 9 9 10 9 7 5 5 5 6 8 10 14 12 4 1 4 7 7 4 4 4 4 5 5 6 8 9 11 11 10 11 12 12 11 11 12 12 11 11 12 11 9 9 8 8 7 8 9 9 8 9 9 8 8 8 8 8 8 8 8 9 10 8 6 5 5 3 1 2 2 1 1 2 3 3 4 6 7 9 10 10 11 11
13 11 8 9 9 8 7 5 4 4 4 6 7 11 12 6 1 2 5 7 7 5 4 3 4 5 7 9 10 10 10 10 10 11 13 12 12 13 14 14 14 14 12 11 10 9 7 6 6 7 7 7 6 6 6 6 6 6 5 5 5 6 7 8 6 5 5 5 4 1 2 2 1 1 2 1 3 4 4 6 8 10 11 11 11
12 11 9 9 8 8 8 6 4 2 2 3 5 9 11 7 2 1 3 6 8 7 5 4 4 6 6 8 10 10 10 10 10 11 12 12 12 14 15 15 16 16 13 12 12 10 6 4 5 6 6 5 4 4 5 6 5 4 4 3 4 5 5 4 3 4 4 4 5 4 2 2 1 4 5 3 1 1 3 3 4 6 8 9 10
13 13 10 8 7 6 6 5 3 0 1 0 3 7 9 7 4 3 4 5 8 8 5 5 5 5 5 6 9 10 10 10 10 10 11 11 12 13 15 16 16 16 15 14 15 13 8 5 5 6 5 5 5 4 4 5 4 1 2 2 3 3 2 1 2 2 2 4 6 6 3 1 2 6 8 7 4 2 1 1 2 4 6 7 10
14 13 9 7 6 5 4 3 3 3 4 2 2 5 8 8 7 6 5 6 8 9 6 7 4 3 3 5 7 9 9 9 10 10 10 9 10 12 13 15 16 16 15 14 15 14 10 7 7 7 7 6 5 4 5 5 5 3 2 3 3 2 2 2 1 0 0 2 6 7 5 2 3 7 8 6 3 2 4 5 5 5 5 6 10
Wind_Direction
318 322 327 338 352 1 3 1 359 354 351 350 346 343 340 335 328 323 321 316 309 301 301 301 295 290 277 262 253 246 244 245 247 254 263 267 252 231 226 229 232 236 236 235 238 237 233 227 225 225 223 222 220 216 215 214 211 207 207 204 201 200 199 198 198 198 200 198 197 194 193 194 190 188 189 187 184 183 185 186 186 184 183 185 185
317 323 328 350 11 14 12 5 3 359 354 352 347 341 340 342 343 341 338 329 322 316 317 315 313 304 274 264 258 238 226 229 240 254 267 268 244 226 228 232 235 238 240 241 240 239 239 234 229 229 227 226 225 221 217 216 213 209 207 205 203 202 200 198 196 198 198 197 198 195 192 193 189 187 188 187 185 184 186 188 187 185 184 186 187
315 326 349 18 24 17 12 8 9 7 358 351 346 346 344 348 353 354 351 344 339 338 336 331 323 309 274 264 247 225 217 224 242 259 266 254 228 224 230 236 242 244 243 246 247 244 244 239 233 233 230 229 229 224 220 220 217 211 208 206 206 204 202 199 196 197 196 196 197 195 193 193 190 188 187 186 185 185 187 189 189 187 185 186 187
332 13 41 37 26 19 19 20 19 15 9 2 359 5 1 358 1 1 2 1 0 1 4 1 349 331 282 261 227 205 202 218 251 264 257 236 229 237 240 241 248 252 250 249 252 253 252 247 242 240 234 230 232 228 223 223 221 215 209 207 208 207 204 200 197 196 195 196 197 195 194 194 192 189 188 186 185 186 188 189 190 188 187 187 188
46 63 57 41 26 29 37 38 32 27 27 28 27 30 22 11 13 15 18 19 18 21 27 24 19 24 45 146 167 175 190 223 269 272 261 241 234 239 240 240 242 254 259 257 258 260 261 255 249 248 244 236 234 233 227 223 222 220 214 209 210 210 207 202 198 196 195 196 197 196 195 196 194 191 191 188 186 187 188 189 191 190 189 188 190
76 70 58 42 39 48 51 46 41 38 38 39 39 38 32 26 28 32 32 29 30 37 42 43 47 67 90 113 135 156 185 283 284 262 265 251 234 226 226 231 235 249 263 265 270 273 272 265 254 248 251 247 238 234 231 226 224 222 218 213 211 210 208 205 201 197 197 198 197 197 195 195 195 194 192 189 187 187 188 190 192 192 192 190 191
78 68 57 51 57 61 54 47 44 40 39 38 36 35 34 32 32 35 36 35 35 40 44 47 57 77 96 114 129 143 132 55 249 244 252 246 234 225 220 228 235 246 261 268 278 281 278 275 267 256 255 254 245 236 231 228 226 224 220 216 212 210 207 205 201 198 199 200 198 197 196 195 195 195 193 189 188 188 189 191 193 194 194 193 193
78 68 62 63 67 63 53 47 41 36 35 34 31 27 25 26 29 30 29 28 29 32 36 41 50 66 83 100 107 106 102 115 143 198 219 223 229 229 227 236 241 245 261 271 278 283 281 279 278 268 259 255 251 243 233 227 226 225 223 218 213 210 208 204 200 198 200 202 200 197 196 196 194 194 193 190 189 189 190 193 194 195 195 195 196
83 75 70 71 70 61 49 40 32 28 28 27 26 23 16 15 19 21 18 17 18 21 27 36 45 58 73 82 84 92 108 131 139 130 217 220 215 222 221 228 241 251 266 274 276 286 289 286 281 275 266 258 255 251 242 231 224 222 223 221 214 211 209 206 202 199 200 201 202 199 194 194 193 193 192 190 191 190 191 193 194 196 196 196 196
86 82 77 75 73 58 44 35 27 26 27 27 28 27 23 17 13 12 9 3 4 8 12 20 37 53 64 64 63 82 107 118 110 112 199 206 190 202 215 219 228 252 281 285 279 284 293 295 287 281 274 265 260 258 252 240 229 223 223 221 216 211 208 208 205 201 200 201 203 201 195 193 192 191 191 191 191 191 192 193 193 195 198 198 197
88 87 80 77 77 58 44 34 28 32 39 38 34 27 24 24 20 18 16 10 5 1 357 3 18 44 54 49 51 71 92 94 89 122 178 203 205 222 238 230 225 245 293 308 297 293 299 301 291 285 281 272 265 262 257 247 237 230 226 220 216 213 208 207 205 201 202 201 202 201 196 194 194 192 191 191 192 192 193 193 192 195 198 200 199
94 94 84 80 75 56 46 36 33 48 52 44 36 26 21 23 24 26 27 30 27 11 350 348 351 4 34 40 51 60 78 103 260 171 189 212 215 217 227 224 224 244 295 309 306 306 309 308 296 290 288 279 271 264 257 249 240 236 231 222 215 212 207 205 205 203 202 201 202 203 197 194 195 195 192 192 193 194 195 193 192 194 196 199 200
96 98 88 80 70 57 48 36 36 56 55 42 34 28 28 26 25 32 34 34 33 26 9 333 326 328 7 25 45 20 262 254 265 263 255 239 219 203 200 210 222 246 283 291 301 308 306 308 304 301 299 288 277 267 258 248 239 235 231 224 214 208 204 202 204 203 200 199 202 204 199 194 197 197 194 193 194 195 196 194 193 194 194 197 198
90 96 86 79 69 54 38 25 29 53 52 40 32 28 36 38 32 38 41 39 37 35 32 7 318 304 339 1 342 329 291 252 241 233 231 242 224 208 209 215 230 258 273 274 283 295 300 306 310 308 307 299 284 269 259 247 239 231 224 221 213 204 200 200 201 201 200 199 200 201 199 198 199 198 195 194 195 196 196 195 194 194 194 196 198
87 91 86 81 63 38 23 20 34 59 54 42 38 33 36 43 41 40 40 41 41 40 42 42 26 358 339 22 0 339 329 294 253 233 226 229 223 223 230 230 246 264 272 276 277 288 297 303 313 313 309 308 294 271 258 247 240 230 219 216 209 197 194 200 202 199 199 199 199 198 199 203 203 201 198 194 195 197 197 197 196 196 197 198 198
81 87 89 76 52 35 36 42 50 65 59 47 44 39 35 39 42 42 39 34 33 37 44 47 40 34 33 320 11 56 355 301 293 257 228 225 232 237 237 242 261 265 273 287 283 288 297 300 312 318 312 313 305 279 259 247 241 231 217 209 202 193 192 200 201 198 198 199 199 199 199 203 203 202 201 197 196 198 199 200 200 200 200 199 198
81 85 81 63 48 46 50 52 55 67 64 54 49 42 36 34 39 43 41 33 28 32 37 41 40 39 41 30 354 23 287 278 324 301 244 234 237 242 243 261 280 274 273 288 290 289 295 301 312 321 321 319 314 289 267 249 235 226 210 196 194 195 198 203 201 197 198 198 199 201 202 204 203 202 204 201 200 200 201 204 203 202 202 201 199
94 88 71 58 58 53 41 44 58 71 69 58 51 45 40 35 37 44 42 36 33 33 30 30 36 36 36 39 39 337 277 290 32 358 311 275 239 247 256 268 276 276 273 275 291 295 294 303 314 323 326 324 322 297 273 250 228 223 205 188 188 195 202 206 205 201 200 199 200 202 204 205 204 204 206 205 204 203 204 207 206 204 204 203 201
103 87 67 68 71 51 32 45 67 72 68 61 53 47 44 38 37 43 41 36 35 35 29 27 30 28 29 37 44 40 3 341 34 85 352 347 326 289 289 290 269 261 268 263 283 302 297 303 316 327 331 327 329 304 269 237 214 212 201 191 188 192 200 206 208 207 204 201 201 203 203 204 206 208 210 209 207 207 209 210 207 206 207 205 202
102 77 71 87 72 50 50 67 74 69 63 62 55 49 49 42 36 37 38 35 33 34 34 30 26 23 25 34 41 46 48 40 49 76 84 23 0 348 348 351 308 255 256 256 278 303 302 309 319 330 336 331 326 297 252 221 205 198 197 198 192 193 201 205 207 208 205 204 203 203 205 206 208 211 212 211 209 208 211 212 209 208 209 208 205
98 73 86 92 63 56 70 74 71 61 54 60 58 53 54 47 39 33 31 32 31 34 38 35 35 31 26 28 32 38 47 48 51 59 69 73 10 325 346 12 14 306 255 241 270 299 299 309 324 338 344 344 329 293 256 233 213 205 203 203 198 200 205 205 205 204 202 206 207 205 209 211 210 212 212 211 210 210 213 215 214 212 212 211 208
97 82 102 93 56 59 74 75 69 60 59 67 64 57 58 53 44 34 26 26 29 34 41 44 45 42 34 31 30 30 35 38 43 48 52 61 31 322 330 3 19 8 317 237 251 282 291 303 326 353 359 356 341 305 272 252 224 214 211 209 208 210 212 210 209 207 205 209 210 208 211 214 213 212 211 211 212 213 215 216 217 214 213 213 210
112 98 119 101 60 61 77 80 75 72 72 72 66 57 60 59 46 33 25 24 28 32 42 46 43 42 41 40 40 42 46 37 34 41 47 49 22 338 336 358 21 22 17 319 263 264 275 297 329 359 14 17 359 325 289 269 242 229 221 213 213 218 219 215 211 209 209 212 213 210 211 214 213 210 210 211 213 215 216 217 218 217 214 212 211
165 179 173 113 64 67 83 85 81 81 76 69 63 56 59 61 45 33 27 30 33 33 42 45 39 39 42 43 47 53 55 44 29 31 40 51 41 347 329 7 30 25 28 24 340 284 261 275 322 346 9 27 18 356 327 298 261 241 234 225 222 224 222 219 216 213 213 213 212 211 211 213 213 210 210 212 213 215 216 217 220 220 216 211 210
191 182 177 146 62 77 86 84 85 84 74 63 57 55 59 56 45 37 36 38 38 35 42 46 39 35 37 40 44 45 40 30 20 21 21 15 21 9 344 25 37 15 24 29 27 23 258 260 297 328 343 6 17 9 338 312 294 247 242 238 232 231 226 222 222 222 219 216 212 213 214 214 214 213 212 212 214 215 215 216 220 223 220 214 210
207 191 190 196 97 84 83 84 89 85 73 59 52 56 59 54 48 45 43 41 39 38 44 49 38 30 32 35 36 34 26 16 14 21 19 8 2 346 329 18 18 6 26 28 32 43 47 314 327 338 333 337 334 325 323 319 312 274 260 259 248 246 239 229 226 226 224 220 215 217 220 217 216 218 216 215 216 216 216 216 217 222 224 221 216
160 180 194 200 148 72 71 93 96 86 71 58 53 62 65 59 57 53 48 45 40 42 51 52 38 31 32 30 27 24 19 17 21 28 28 19 11 348 295 349 21 353 11 21 23 35 49 69 53 34 25 10 347 317 295 287 288 276 270 313 279 253 245 235 233 238 234 225 219 221 225 223 221 223 222 220 220 219 217 217 218 219 222 224 222
117 123 162 184 146 93 103 106 99 87 73 61 57 67 71 66 61 54 50 50 43 46 56 58 48 41 35 28 29 31 31 36 39 38 38 35 34 27 356 316 20 339 341 2 359 23 37 49 49 48 55 54 42 29 334 289 303 292 274 299 359 76 197 223 232 250 251 240 231 228 229 228 225 226 225 222 222 222 221 219 219 219 219 221 221
115 112 127 147 134 116 113 108 98 86 76 65 60 69 75 67 60 52 49 50 48 52 58 58 52 42 35 33 37 41 42 44 45 45 47 47 48 50 44 32 29 281 223 25 351 355 23 36 39 40 51 57 54 55 58 52 36 22 357 337 337 350 7 265 246 253 252 254 252 239 234 232 228 227 227 224 220 221 222 220 219 220 221 220 219
131 120 120 128 128 119 112 105 94 81 71 60 58 69 73 65 58 54 54 53 53 55 56 55 51 38 34 38 39 39 39 41 44 48 52 50 51 54 52 46 46 65 140 108 40 5 19 32 35 32 41 53 55 56 57 54 48 42 40 35 26 25 25 16 341 295 274 280 279 259 249 245 238 233 232 228 222 219 220 220 220 222 222 221 220
140 132 127 126 126 119 110 103 89 74 63 58 59 64 67 63 56 53 54 52 49 50 50 48 46 35 33 38 38 34 30 33 42 48 52 52 51 51 49 47 46 49 65 94 90 25 24 26 27 32 42 48 49 52 48 44 43 41 46 52 51 48 42 35 31 26 12 345 328 304 281 269 258 249 242 237 230 223 220 220 221 222 220 219 221
125 130 130 127 125 119 111 102 87 73 62 61 63 61 61 59 53 53 53 49 46 48 46 41 38 36 39 43 41 35 28 27 37 46 50 51 50 48 44 42 42 40 44 63 97 37 31 28 22 25 31 31 35 41 37 32 32 29 39 54 55 53 50 38 27 25 27 16 357 340 318 297 280 268 259 253 243 232 227 225 222 220 218 218 221
127 128 127 127 126 120 113 100 83 71 61 65 69 64 61 55 52 57 53 47 50 53 48 42 42 45 44 40 36 34 32 30 34 41 45 45 47 49 45 40 40 35 32 40 50 35 32 29 18 10 7 7 16 25 26 24 26 25 30 36 30 26 23 15 6 2 7 358 339 330 322 313 302 284 268 261 254 242 238 236 227 222 220 217 218
130 126 127 129 125 118 108 90 76 67 59 65 73 71 65 59 59 62 56 54 59 60 53 51 53 50 42 36 30 26 30 35 38 40 40 40 43 46 46 42 40 37 32 29 26 19 17 18 15 7 358 355 359 7 13 14 13 12 12 13 351 339 328 323 327 326 322 316 309 306 305 305 308 304 281 263 255 245 241 241 233 228 223 217 216
132 131 132 130 122 113 99 82 73 62 50 57 77 81 74 68 67 67 65 66 64 57 56 61 62 53 44 42 37 30 32 38 40 37 36 36 39 42 44 42 41 40 40 34 26 19 10 8 10 9 6 2 1 5 8 11 12 1 344 329 308 308 308 297 293 297 298 298 295 291 292 290 292 300 292 268 256 248 239 239 240 234 223 215 214
135 137 136 129 120 110 94 82 68 49 40 52 90 101 89 81 78 71 69 75 71 59 61 67 67 55 46 43 42 40 41 41 38 32 30 30 32 35 37 37 38 40 43 46 41 34 24 10 5 8 9 8 10 9 6 11 25 21 10 0 327 308 307 303 293 284 282 289 291 288 288 284 281 286 286 264 250 244 232 229 230 211 189 188 193
140 141 136 127 118 106 92 79 58 43 46 64 96 114 107 94 84 66 66 80 77 66 64 68 64 53 48 48 49 46 43 40 35 28 23 21 20 20 21 23 26 28 35 47 48 42 40 23 2 5 11 10 10 11 10 13 28 34 38 46 29 354 327 314 305 288 275 277 282 286 289 283 273 272 270 252 238 232 222 218 220 205 178 171 177
143 140 133 125 115 103 90 70 49 44 56 73 98 116 111 88 66 57 72 89 83 75 73 74 65 57 57 59 58 52 45 39 32 24 17 14 11 7 2 1 2 4 14 31 38 35 35 29 9 7 13 12 9 12 16 20 31 31 32 42 38 21 4 350 344 326 300 291 289 292 295 291 272 259 247 230 226 227 221 218 218 210 196 188 186
144 137 130 122 112 102 88 67 50 46 57 79 101 116 109 70 50 63 96 97 94 96 88 76 68 67 66 59 59 59 49 37 29 22 12 7 5 358 351 349 349 354 3 14 24 25 21 15 10 7 8 9 8 8 10 15 28 30 26 21 13 10 8 1 360 0 355 11 38 351 328 318 310 288 247 229 225 222 218 218 215 204 201 206 203
143 135 128 121 114 104 88 68 54 48 54 76 97 110 106 61 48 76 116 104 105 112 89 70 66 70 70 61 58 56 44 31 23 15 6 1 358 353 353 356 358 2 7 9 14 17 10 3 2 0 358 2 5 359 358 4 9 11 15 10 358 358 0 358 4 11 7 14 40 36 19 20 25 34 43 211 224 220 214 216 216 208 205 209 208
142 135 130 126 120 108 91 74 59 53 53 64 85 100 95 51 43 77 126 119 117 115 84 68 66 70 73 66 54 42 30 22 17 10 3 1 357 353 358 4 8 14 15 12 11 10 2 354 351 350 349 355 4 357 349 352 352 347 352 357 356 354 352 353 10 22 9 10 18 19 26 34 32 31 53 91 161 209 211 211 212 212 212 213 212
142 140 136 128 118 107 96 82 67 60 57 58 72 94 88 30 23 51 125 138 128 109 80 73 73 70 64 48 32 26 19 13 11 11 10 7 2 2 8 10 10 14 14 12 8 1 357 352 345 344 342 343 354 353 337 333 334 334 339 348 349 349 349 353 9 20 10 11 16 18 14 18 27 29 38 96 123 150 185 195 198 204 212 217 219
145 144 139 128 119 113 109 95 73 66 62 57 60 79 89 2 5 25 118 153 139 101 73 68 71 72 58 33 21 20 15 11 12 15 16 13 8 10 16 20 23 25 23 20 15 4 356 351 345 345 338 328 336 342 331 325 328 331 336 339 338 343 350 351 347 349 357 2 5 12 9 334 341 34 73 121 138 144 152 168 179 193 208 216 221
149 146 141 136 135 132 124 107 83 73 66 57 49 39 303 342 5 22 108 153 144 111 77 62 65 74 55 32 26 21 14 12 15 16 18 21 23 22 23 27 33 34 32 27 21 14 4 350 340 338 334 323 323 327 325 322 323 323 324 328 329 332 338 336 319 317 332 343 344 347 354 339 251 218 187 157 168 185 182 176 180 192 209 215 217
153 152 148 145 148 147 135 115 95 81 69 54 42 30 358 335 7 31 95 139 142 118 79 66 68 67 42 28 26 19 13 15 20 22 25 28 31 34 35 33 30 28 25 19 9 2 358 349 334 326 328 324 315 315 316 311 308 309 315 323 325 323 325 325 319 317 325 334 328 321 332 344 284 218 203 177 177 200 206 205 206 205 210 213 214
156 154 150 150 152 153 145 123 103 87 69 52 36 26 20 359 13 57 93 128 154 145 96 76 70 57 36 29 26 18 14 24 28 27 28 25 24 34 42 37 27 24 24 19 5 355 349 342 326 317 321 321 313 312 312 301 296 298 306 317 323 322 322 322 320 324 335 340 319 295 304 312 291 257 235 214 205 211 210 209 212 215 216 214 213
159 155 148 151 151 153 153 137 121 101 67 47 31 22 20 18 75 82 89 99 119 151 137 88 65 52 39 32 28 20 21 34 35 29 26 23 27 38 42 38 32 30 30 26 16 5 352 339 327 320 323 323 313 311 311 299 290 287 292 306 314 314 316 320 327 350 8 358 341 285 260 281 297 272 245 261 268 250 232 225 222 220 220 219 218
161 157 145 150 154 155 161 162 148 119 64 36 27 21 21 24 123 113 86 77 79 110 135 98 69 62 48 35 28 24 27 36 35 27 24 24 32 39 36 32 33 32 33 33 25 18 8 353 339 331 331 327 314 312 314 303 287 279 285 301 306 308 318 328 346 18 19 359 354 326 271 294 300 162 157 264 300 297 274 250 238 232 225 222 228
160 156 150 155 159 158 163 169 161 121 53 21 25 27 26 26 26 109 92 71 66 81 111 106 75 62 47 31 26 26 33 39 30 21 22 25 29 31 26 26 32 33 32 33 29 26 22 1 344 344 349 347 330 325 329 323 305 281 283 308 319 323 331 336 350 11 17 12 7 349 317 303 227 161 134 118 102 347 322 291 256 244 232 222 227
161 160 157 154 154 153 155 161 162 219 293 318 46 38 37 33 23 50 79 72 63 70 106 125 90 63 47 26 21 27 37 40 29 17 18 23 29 27 17 16 25 29 26 23 21 20 18 13 12 13 17 16 0 354 5 6 6 335 271 311 329 328 335 313 295 328 29 28 15 2 341 302 198 157 131 113 104 98 57 52 149 199 212 211 215
162 164 163 152 147 151 163 175 202 251 249 206 93 53 46 41 34 40 62 78 68 69 107 132 103 54 46 27 21 29 37 38 32 24 20 22 30 29 17 10 14 19 20 19 17 17 22 35 36 32 37 40 31 31 40 40 44 52 31 10 355 341 45 47 1 350 84 353 7 9 353 309 213 174 151 123 91 109 140 140 140 160 175 182 194